EW6618 Weather Reports


Display with metric or nautical units.
time (UTC)temp
F
wind
direction
speed
MPH
gust
MPH
rain 1hr
in
rain 24hr
in
rain mn
in
humidity
%
barometer
mb
20260901203120 75 258 7.0 11.0 0.00 0.00 0.00 70 1015.9
20260901202104 76 278 6.0 9.0 0.00 0.00 0.00 71 1015.9
20260901201112 75 263 6.0 11.0 0.00 0.00 0.00 71 1016.0
20260901200121 75 240 6.0 11.0 0.00 0.00 0.00 71 1016.1
20260901195137 76 251 6.0 11.0 0.00 0.00 0.00 70 1016.1
20260901190712 76 236 4.0 11.0 0.00 0.00 0.00 69 1016.3
20260901185720 76 226 3.0 8.0 0.00 0.00 0.00 68 1016.3
20260901184649 76 68 4.0 8.0 0.00 0.00 0.00 70 1016.3
20260901183629 75 38 3.0 8.0 0.00 0.00 0.00 70 1016.4
20260901182602 75 23 3.0 6.0 0.00 0.00 0.00 71 1016.4
20260901181613 74 145 4.0 8.0 0.00 0.00 0.00 73 1016.3
20260901180541 74 265 4.0 8.0 0.00 0.00 0.00 74 1016.4
20260901175517 74 277 4.0 9.0 0.00 0.00 0.00 74 1016.4
20260901174504 74 72 4.0 9.0 0.00 0.00 0.00 75 1016.4
20260901173508 73 258 4.0 8.0 0.00 0.00 0.00 75 1016.3
20260901172525 73 56 4.0 9.0 0.00 0.00 0.00 75 1016.3
20260901171508 74 217 3.0 9.0 0.00 0.00 0.00 75 1016.2
20260901170457 74 313 2.0 6.0 0.00 0.00 0.00 75 1016.1
20260901165518 73 245 1.0 4.0 0.00 0.00 0.00 77 1016.0
20260901163410 71 131 1.0 3.0 0.00 0.00 0.00 81 1016.0
20260901162428 70 224 0.0 3.0 0.00 0.00 0.00 81 1016.1
20260901161444 70 194 0.0 4.0 0.00 0.00 0.00 81 1016.1
20260901160508 70 104 0.0 4.0 0.00 0.00 0.00 81 1016.0
20260901155442 70 219 0.0 3.0 0.00 0.00 0.00 82 1016.1
20260901153239 69 155 1.0 4.0 0.00 0.00 0.00 82 1015.9
20260901152251 69 120 1.0 6.0 0.00 0.00 0.00 83 1015.9
20260901151256 69 124 2.0 6.0 0.00 0.00 0.00 84 1015.8
20260901150235 69 108 1.0 4.0 0.00 0.00 0.00 84 1015.8
20260901145238 68 106 1.0 3.0 0.00 0.00 0.00 84 1015.7
20260901144239 68 116 1.0 3.0 0.00 0.00 0.00 85 1015.5
20260901143258 67 94 0.0 3.0 0.00 0.00 0.00 86 1015.4
20260901142243 66 93 1.0 3.0 0.00 0.00 0.00 87 1015.2
20260901141259 66 79 1.0 4.0 0.00 0.00 0.00 87 1015.0
20260901140313 66 76 1.0 4.0 0.00 0.00 0.00 86 1014.8
20260901135335 66 110 0.0 2.0 0.00 0.00 0.00 86 1014.9
20260901134328 66 100 0.0 4.0 0.00 0.00 0.00 86 1014.8
20260901133339 66 207 1.0 4.0 0.00 0.00 0.00 86 1014.8
20260901132308 66 245 1.0 4.0 0.00 0.00 0.00 86 1014.6
20260901131243 66 228 0.0 5.0 0.00 0.00 0.00 86 1014.6
20260901130226 67 146 1.0 5.0 0.00 0.00 0.00 86 1014.6
20260901125247 67 239 1.0 3.0 0.00 0.00 0.00 86 1014.5
20260901124249 67 267 0.0 2.0 0.00 0.00 0.00 86 1014.5
20260901123314 67 281 1.0 1.0 0.00 0.00 0.00 85 1014.6
20260901122314 67 258 3.0 6.0 0.00 0.00 0.00 86 1014.5
20260901121332 67 245 1.0 6.0 0.00 0.00 0.00 86 1014.4
20260901120348 67 291 1.0 6.0 0.00 0.00 0.00 86 1014.5
20260901115345 67 242 2.0 6.0 0.00 0.00 0.00 86 1014.4
20260901114342 67 264 0.0 4.0 0.00 0.00 0.00 87 1014.3
20260901113343 67 297 0.0 3.0 0.00 0.00 0.00 86 1014.4
20260901112343 67 296 0.0 0.0 0.00 0.00 0.00 86 1014.4
20260901111311 67 290 1.0 3.0 0.00 0.00 0.00 86 1014.4
20260901105211 67 284 1.0 6.0 0.00 0.00 0.00 87 1014.4
20260901104200 67 252 3.0 6.0 0.00 0.00 0.00 86 1014.5
20260901103126 67 326 3.0 6.0 0.00 0.00 0.00 86 1014.5
20260901102148 67 286 3.0 7.0 0.00 0.00 0.00 87 1014.7
20260901101146 67 254 4.0 7.0 0.00 0.00 0.00 86 1014.7
20260901100116 67 241 3.0 6.0 0.00 0.00 0.00 87 1014.6
20260901095124 67 270 4.0 7.0 0.00 0.00 0.00 86 1014.6
20260901094134 67 238 4.0 7.0 0.00 0.00 0.00 86 1014.7
20260901093102 67 215 4.0 8.0 0.00 0.00 0.00 86 1014.6
20260901092046 67 263 4.0 9.0 0.00 0.00 0.00 87 1014.5
20260901091033 67 231 4.0 9.0 0.00 0.00 0.00 87 1014.6
20260901090046 67 248 4.0 8.0 0.00 0.00 0.00 86 1014.7
20260901085103 67 279 4.0 8.0 0.00 0.00 0.00 86 1014.8
20260901084054 67 128 3.0 7.0 0.00 0.00 0.00 86 1014.9
20260901083116 67 235 3.0 6.0 0.00 0.00 0.00 86 1014.9
20260901082130 67 259 4.0 11.0 0.00 0.00 0.00 86 1014.8
20260901081058 67 239 4.0 11.0 0.00 0.00 0.00 86 1014.8
20260901080054 67 242 4.0 8.0 0.00 0.00 0.00 86 1014.8
20260901075031 67 225 3.0 8.0 0.00 0.00 0.00 86 1014.8
20260901074051 67 261 4.0 7.0 0.00 0.00 0.00 86 1014.8
20260901073109 67 99 3.0 7.0 0.00 0.00 0.00 86 1014.8
20260901072049 67 238 3.0 10.0 0.00 0.00 0.00 86 1014.9
20260901071047 67 241 4.0 10.0 0.00 0.00 0.00 86 1014.9
20260901070051 67 219 3.0 8.0 0.00 0.00 0.00 86 1014.9
20260901065050 67 163 4.0 8.0 0.00 0.00 0.00 86 1014.8
20260901064021 67 245 4.0 8.0 0.00 0.00 0.00 86 1014.7
20260901060741 68 31 5.0 9.0 0.00 0.00 0.00 86 1014.2
20260901055756 68 217 6.0 9.0 0.00 0.00 0.00 87 1014.2
20260901054728 68 189 4.0 9.0 0.00 0.00 0.00 86 1014.1
20260901053736 68 272 4.0 9.0 0.00 0.00 0.00 86 1014.3
20260901050459 68 271 4.0 8.0 0.00 0.00 0.00 87 1014.1
20260901045521 68 278 4.0 8.0 0.00 0.00 0.00 87 1014.1
20260901043346 68 252 4.0 8.0 0.00 0.00 0.00 87 1014.1
20260901041231 68 221 4.0 8.0 0.00 0.00 0.00 87 1013.9
20260901040247 68 318 4.0 8.0 0.00 0.00 0.00 88 1013.7
20260901035306 68 258 4.0 6.0 0.00 0.00 0.00 87 1013.6
20260901034253 68 279 4.0 8.0 0.00 0.00 0.00 87 1013.3
20260901032136 69 291 6.0 9.0 0.00 0.00 0.00 87 1013.1
20260901031132 69 279 5.0 9.0 0.00 0.00 0.00 87 1013.1
20260901030128 69 290 5.0 11.0 0.00 0.00 0.00 87 1013.0
20260901025125 70 298 5.0 11.0 0.00 0.00 0.00 86 1012.8
20260901024125 70 321 6.0 10.0 0.00 0.00 0.00 85 1012.8
20260901023109 70 326 7.0 11.0 0.00 0.00 0.00 84 1012.9
20260901022122 70 288 7.0 12.0 0.00 0.00 0.00 84 1012.9
20260901021116 71 292 8.0 12.0 0.00 0.00 0.00 83 1012.9
20260901020139 71 214 8.0 12.0 0.00 0.00 0.00 83 1013.1
20260901015153 72 257 8.0 12.0 0.00 0.00 0.00 82 1013.1
20260901014207 72 288 8.0 12.0 0.00 0.00 0.00 81 1013.1
20260901012102 73 288 8.0 12.0 0.00 0.00 0.00 81 1013.1
20260901011031 73 247 8.0 13.0 0.00 0.00 0.00 81 1013.1
20260901010007 74 252 9.0 14.0 0.00 0.00 0.00 80 1013.2
20260901004958 74 226 9.0 14.0 0.00 0.00 0.00 79 1013.3
20260901004001 74 126 9.0 14.0 0.00 0.00 0.00 80 1013.2
20260901002926 75 29 8.0 12.0 0.00 0.00 0.00 79 1013.2
20260901001854 75 257 9.0 13.0 0.00 0.00 0.00 79 1013.3
20260831234618 76 299 8.0 13.0 0.00 0.00 0.00 77 1013.4
20260831232432 76 167 7.0 11.0 0.00 0.00 0.00 76 1013.2
20260831231400 76 234 7.0 11.0 0.00 0.00 0.00 77 1013.3
20260831225240 76 230 6.0 12.0 0.00 0.00 0.00 76 1013.2
20260831223058 77 228 6.0 13.0 0.00 0.00 0.00 75 1013.5
20260831222038 77 149 8.0 13.0 0.00 0.00 0.00 76 1013.6
20260831221051 77 171 8.0 12.0 0.00 0.00 0.00 75 1013.7
20260831214954 77 317 8.0 12.0 0.00 0.00 0.00 75 1013.8
20260831213945 77 200 7.0 10.0 0.00 0.00 0.00 74 1013.8
20260831212925 78 248 6.0 11.0 0.00 0.00 0.00 73 1013.9
20260831211919 77 245 6.0 11.0 0.00 0.00 0.00 73 1014.0
20260831210856 77 269 7.0 10.0 0.00 0.00 0.00 74 1014.0
20260831205825 78 224 6.0 9.0 0.00 0.00 0.00 73 1014.0
20260831204837 77 13 6.0 11.0 0.00 0.00 0.00 73 1014.2